333P/LINEAR (2016)

Japanese version
Home page
Updated on October 7, 2017

---------------------------------------------------------------------

* Profile

* Pictures

* Orbital Elements

Epoch 2016 Apr. 2.0 TT = JDT 2457480.5
T 2016 Apr. 3.89031 TT                                  MPCW
q   1.1151596            (2000.0)            P               Q
n   0.11349781     Peri.   26.14445     -0.12205150     +0.73071994
a   4.2248477      Node   115.56566     +0.72892627     -0.39330828
e   0.7360474      Incl.  131.87704     +0.67362447     +0.55799370
P   8.68
From 622 observations 2007 Nov. 4-2016 Sept. 9, mean residual 0".4.

* Finding Charts

* Magnitudes Graph

        H = 15.0  G = 0.15               [   ,-57]  (             - 2016 Feb.  6)
        m1 = 6.5 + 5 log d + 80   log r  [-57,-20]  (2016 Feb.  6 - 2016 Mar. 14)
        m1 = 9.5 + 5 log d + 30.0 log r  [-20,118]  (2016 Mar. 14 - 2016 July 30)
        H = 15.0  G = 0.15               [118,   ]  (2016 July 30 -             )

---------------------------------------------------------------------

The orbital elements are published on M.P.E.C. 2017-J52.
The charts are made with StellaNavigator Ver.8 (AstroArts).
The magnitudes graphs are made with Comet for Windows.

---------------------------------------------------------------------

Copyright(C) Seiichi Yoshida (comet@aerith.net). All rights reserved.